WTB9CK TNCM-MDSD

Flight info

Callsign WTB9CK
Flight time 1h 6m
Altitude 32000
Route BOPAT2 GOUDA L577 ANTEX/N0329F180 L577 GOSUB GOSUB2G
Aircraft E45X/M-SDFGIRW/S

Departure

Time 2026-05-04 18:44
Airport Princess Juliana International Airport (TNCM)

Arrival

Time 2026-05-04 19:50
Airport Las Américas International Airport (MDSD)
Time Latitude Longitude Altitude Speed Heading
2026-05-04 17:23 18.04155 -63.11409 20 ft 0 kts 171°
2026-05-04 18:28 18.04154 -63.11409 20 ft 0 kts 171°
2026-05-04 18:29 18.04155 -63.11409 20 ft 1 kts 171°
2026-05-04 18:29 18.04170 -63.11411 20 ft 2 kts 171°
2026-05-04 18:29 18.04184 -63.11414 20 ft 2 kts 171°
2026-05-04 18:30 18.04215 -63.11417 20 ft 2 kts 197°
2026-05-04 18:30 18.04227 -63.11409 20 ft 2 kts 230°
2026-05-04 18:30 18.04234 -63.11395 20 ft 2 kts 262°
2026-05-04 18:31 18.04236 -63.11383 20 ft 0 kts 262°
2026-05-04 18:31 18.04236 -63.11382 20 ft 0 kts 262°
2026-05-04 18:32 18.04235 -63.11388 20 ft 2 kts 262°
2026-05-04 18:32 18.04228 -63.11438 20 ft 11 kts 262°
2026-05-04 18:33 18.04187 -63.11533 20 ft 17 kts 224°
2026-05-04 18:33 18.04099 -63.11635 20 ft 17 kts 230°
2026-05-04 18:33 18.04055 -63.11758 20 ft 17 kts 261°
2026-05-04 18:33 18.04051 -63.11782 20 ft 0 kts 260°
2026-05-04 18:36 18.04051 -63.11784 20 ft 1 kts 259°
2026-05-04 18:37 18.04048 -63.11805 20 ft 4 kts 263°
2026-05-04 18:37 18.04042 -63.11844 20 ft 5 kts 261°
2026-05-04 18:37 18.04042 -63.11845 20 ft 0 kts 261°
2026-05-04 18:39 18.04042 -63.11846 20 ft 0 kts 261°
2026-05-04 18:40 18.04040 -63.11861 20 ft 3 kts 261°
2026-05-04 18:40 18.04031 -63.11894 20 ft 6 kts 246°
2026-05-04 18:40 18.04002 -63.11937 20 ft 8 kts 217°
2026-05-04 18:40 18.03950 -63.11934 20 ft 4 kts 136°
2026-05-04 18:41 18.03947 -63.11918 20 ft 0 kts 85°
2026-05-04 18:41 18.03948 -63.11916 20 ft 1 kts 85°
2026-05-04 18:41 18.03949 -63.11904 20 ft 0 kts 82°
2026-05-04 18:43 18.03951 -63.11893 20 ft 6 kts 80°
2026-05-04 18:43 18.03993 -63.11603 20 ft 81 kts 82°
2026-05-04 18:43 18.04115 -63.10755 24 ft 148 kts 82°
2026-05-04 18:44 18.04327 -63.09627 519 ft 161 kts 89°
2026-05-04 18:44 18.04124 -63.08899 1002 ft 167 kts 128°
2026-05-04 18:44 18.02596 -63.08232 1961 ft 190 kts 164°
2026-05-04 18:44 18.01324 -63.08024 2943 ft 188 kts 165°
2026-05-04 18:45 18.00066 -63.07824 3820 ft 186 kts 166°
2026-05-04 18:45 17.98661 -63.07578 3973 ft 222 kts 168°
2026-05-04 18:45 17.97016 -63.07844 4146 ft 264 kts 202°
2026-05-04 18:45 17.95632 -63.09177 4959 ft 280 kts 237°
2026-05-04 18:46 17.94928 -63.11065 6067 ft 277 kts 249°
2026-05-04 18:46 17.94368 -63.12986 6938 ft 281 kts 257°
2026-05-04 18:46 17.94158 -63.15015 7789 ft 285 kts 266°
2026-05-04 18:46 17.94089 -63.17113 8674 ft 286 kts 268°
2026-05-04 18:47 17.94054 -63.19192 9499 ft 289 kts 269°
2026-05-04 18:47 17.94026 -63.21296 10284 ft 292 kts 269°
2026-05-04 18:47 17.93999 -63.23433 10944 ft 301 kts 269°
2026-05-04 18:47 17.93970 -63.25674 11471 ft 314 kts 269°
2026-05-04 18:48 17.93940 -63.28041 12056 ft 324 kts 269°
2026-05-04 18:48 17.93908 -63.30432 12623 ft 333 kts 269°
2026-05-04 18:48 17.93876 -63.32893 13143 ft 343 kts 269°
2026-05-04 18:48 17.93842 -63.35453 13639 ft 353 kts 269°
2026-05-04 18:49 17.93808 -63.38026 14192 ft 360 kts 269°
2026-05-04 18:49 17.93772 -63.40692 14806 ft 364 kts 269°
2026-05-04 18:49 17.93736 -63.43323 15502 ft 365 kts 269°
2026-05-04 18:49 17.93699 -63.46004 16160 ft 367 kts 269°
2026-05-04 18:50 17.93661 -63.48705 16814 ft 368 kts 270°
2026-05-04 18:50 17.93624 -63.51365 17439 ft 370 kts 270°
2026-05-04 18:50 17.93585 -63.54087 18046 ft 372 kts 270°
2026-05-04 18:50 17.93547 -63.56794 18597 ft 375 kts 270°
2026-05-04 18:51 17.93507 -63.59524 19180 ft 376 kts 270°
2026-05-04 18:51 17.93467 -63.62286 19761 ft 378 kts 270°
2026-05-04 18:51 17.93426 -63.65044 20328 ft 379 kts 269°
2026-05-04 18:51 17.93604 -63.67780 20855 ft 380 kts 281°
2026-05-04 18:52 17.94131 -63.70523 21385 ft 382 kts 281°
2026-05-04 18:52 17.94644 -63.73243 21924 ft 383 kts 281°
2026-05-04 18:52 17.95159 -63.75972 22438 ft 385 kts 282°
2026-05-04 18:52 17.95682 -63.78756 23071 ft 383 kts 282°
2026-05-04 18:53 17.96193 -63.81475 23753 ft 380 kts 282°
2026-05-04 18:53 17.96697 -63.84156 24437 ft 376 kts 282°
2026-05-04 18:53 17.97203 -63.86856 25080 ft 374 kts 282°
2026-05-04 18:53 17.97700 -63.89502 25719 ft 371 kts 282°
2026-05-04 18:54 17.98200 -63.92171 26358 ft 368 kts 283°
2026-05-04 18:54 17.98687 -63.94776 26971 ft 366 kts 283°
2026-05-04 18:54 17.99178 -63.97397 27566 ft 363 kts 283°
2026-05-04 18:54 17.99660 -63.99974 28155 ft 361 kts 283°
2026-05-04 18:55 18.00138 -64.02532 28726 ft 359 kts 283°
2026-05-04 18:55 18.01092 -64.07645 29777 ft 356 kts 283°
2026-05-04 18:55 18.01570 -64.10207 30292 ft 355 kts 283°
2026-05-04 18:56 18.02041 -64.12740 30809 ft 353 kts 283°
2026-05-04 18:56 18.02510 -64.15256 31304 ft 351 kts 283°
2026-05-04 18:56 18.02977 -64.17770 31783 ft 350 kts 283°
2026-05-04 18:56 18.03451 -64.20319 31963 ft 359 kts 283°
2026-05-04 18:57 18.04435 -64.25622 31972 ft 369 kts 283°
2026-05-04 18:57 18.05426 -64.30967 31972 ft 374 kts 283°
2026-05-04 18:58 18.06427 -64.36380 31970 ft 378 kts 283°
2026-05-04 18:58 18.07429 -64.41805 31969 ft 382 kts 283°
2026-05-04 18:59 18.08449 -64.47332 31965 ft 385 kts 282°
2026-05-04 18:59 18.09476 -64.52911 31965 ft 389 kts 282°
2026-05-04 19:00 18.10505 -64.58508 31958 ft 392 kts 282°
2026-05-04 19:00 18.11542 -64.64161 31952 ft 394 kts 283°
2026-05-04 19:01 18.12581 -64.69835 31955 ft 396 kts 282°
2026-05-04 19:01 18.13620 -64.75518 31953 ft 398 kts 282°
2026-05-04 19:02 18.14664 -64.81234 31951 ft 400 kts 282°
2026-05-04 19:02 18.15716 -64.87011 31950 ft 401 kts 282°
2026-05-04 19:03 18.16774 -64.92824 31953 ft 403 kts 282°
2026-05-04 19:03 18.17813 -64.98635 31952 ft 404 kts 279°
2026-05-04 19:04 18.18407 -65.04505 31949 ft 405 kts 278°
2026-05-04 19:04 18.19035 -65.10397 31953 ft 406 kts 278°
2026-05-04 19:05 18.19674 -65.16350 31958 ft 413 kts 278°
2026-05-04 19:05 18.20326 -65.22453 31951 ft 425 kts 277°
2026-05-04 19:06 18.20997 -65.28736 31953 ft 436 kts 277°
2026-05-04 19:06 18.21683 -65.35188 31953 ft 446 kts 277°
2026-05-04 19:07 18.22370 -65.41671 31953 ft 449 kts 277°
2026-05-04 19:07 18.23058 -65.48186 31955 ft 449 kts 277°
2026-05-04 19:08 18.23748 -65.54744 31958 ft 447 kts 277°
2026-05-04 19:08 18.24428 -65.61220 31967 ft 445 kts 277°
2026-05-04 19:09 18.25107 -65.67711 31977 ft 443 kts 277°
2026-05-04 19:09 18.25776 -65.74132 31989 ft 442 kts 277°
2026-05-04 19:10 18.26330 -65.79457 31992 ft 441 kts 277°
2026-05-04 19:10 18.27104 -65.86933 31984 ft 440 kts 277°
2026-05-04 19:11 18.27765 -65.93331 31976 ft 439 kts 277°
2026-05-04 19:11 18.28423 -65.99728 31970 ft 439 kts 277°
2026-05-04 19:12 18.29402 -66.09281 31985 ft 437 kts 277°
2026-05-04 19:13 18.30057 -66.15707 31998 ft 442 kts 277°
2026-05-04 19:13 18.30720 -66.22218 32004 ft 447 kts 277°
2026-05-04 19:14 18.31382 -66.28757 32003 ft 449 kts 276°
2026-05-04 19:14 18.32046 -66.35327 32000 ft 449 kts 277°
2026-05-04 19:15 18.32706 -66.41883 31992 ft 450 kts 276°
2026-05-04 19:15 18.33473 -66.49537 31984 ft 451 kts 276°
2026-05-04 19:16 18.34022 -66.55025 31978 ft 451 kts 276°
2026-05-04 19:16 18.34678 -66.61610 31982 ft 451 kts 276°
2026-05-04 19:17 18.35331 -66.68188 31981 ft 451 kts 276°
2026-05-04 19:17 18.35982 -66.74779 31982 ft 452 kts 276°
2026-05-04 19:18 18.36634 -66.81390 31980 ft 452 kts 276°
2026-05-04 19:18 18.37281 -66.87982 31975 ft 452 kts 276°
2026-05-04 19:19 18.37928 -66.94591 31975 ft 452 kts 276°
2026-05-04 19:19 18.38571 -67.01190 31971 ft 452 kts 276°
2026-05-04 19:20 18.39212 -67.07783 31968 ft 453 kts 276°
2026-05-04 19:20 18.39845 -67.14332 31963 ft 453 kts 276°
2026-05-04 19:21 18.40484 -67.20956 31961 ft 453 kts 276°
2026-05-04 19:21 18.41114 -67.27510 31951 ft 453 kts 276°
2026-05-04 19:22 18.41744 -67.34086 31950 ft 453 kts 276°
2026-05-04 19:22 18.42375 -67.40708 31943 ft 453 kts 276°
2026-05-04 19:23 18.43004 -67.47327 31950 ft 452 kts 276°
2026-05-04 19:23 18.43313 -67.50581 31843 ft 446 kts 276°
2026-05-04 19:23 18.43623 -67.53859 31581 ft 445 kts 276°
2026-05-04 19:23 18.43929 -67.57105 31332 ft 444 kts 276°
2026-05-04 19:24 18.44234 -67.60342 31078 ft 442 kts 276°
2026-05-04 19:24 18.44536 -67.63548 30829 ft 440 kts 276°
2026-05-04 19:24 18.44838 -67.66771 30581 ft 439 kts 276°
2026-05-04 19:24 18.45135 -67.69935 30341 ft 438 kts 276°
2026-05-04 19:25 18.45438 -67.73174 30088 ft 436 kts 276°
2026-05-04 19:25 18.45731 -67.76315 29848 ft 435 kts 276°
2026-05-04 19:25 18.46030 -67.79515 29596 ft 434 kts 276°
2026-05-04 19:25 18.46323 -67.82664 29187 ft 438 kts 277°
2026-05-04 19:26 18.46622 -67.85889 28746 ft 443 kts 277°
2026-05-04 19:26 18.46922 -67.89123 28311 ft 447 kts 277°
2026-05-04 19:26 18.47225 -67.92386 27876 ft 451 kts 276°
2026-05-04 19:26 18.47530 -67.95695 27437 ft 454 kts 276°
2026-05-04 19:27 18.47834 -67.99039 26997 ft 456 kts 275°
2026-05-04 19:27 18.47882 -68.02348 26562 ft 457 kts 269°
2026-05-04 19:27 18.47807 -68.05724 26119 ft 457 kts 269°
2026-05-04 19:27 18.47736 -68.09113 25945 ft 455 kts 269°
2026-05-04 19:28 18.47666 -68.12409 25935 ft 455 kts 269°
2026-05-04 19:28 18.47595 -68.15755 25935 ft 456 kts 269°
2026-05-04 19:28 18.47525 -68.19051 25936 ft 457 kts 269°
2026-05-04 19:28 18.47451 -68.22435 25942 ft 457 kts 269°
2026-05-04 19:29 18.47379 -68.25765 25940 ft 458 kts 269°
2026-05-04 19:29 18.47304 -68.29171 25656 ft 466 kts 269°
2026-05-04 19:29 18.47230 -68.32558 25237 ft 461 kts 269°
2026-05-04 19:29 18.47155 -68.35892 24795 ft 454 kts 269°
2026-05-04 19:30 18.47080 -68.39239 24350 ft 449 kts 268°
2026-05-04 19:30 18.47006 -68.42494 23914 ft 445 kts 268°
2026-05-04 19:30 18.46932 -68.45731 23479 ft 445 kts 268°
2026-05-04 19:30 18.46857 -68.49010 23039 ft 444 kts 268°
2026-05-04 19:31 18.46782 -68.52259 22608 ft 444 kts 268°
2026-05-04 19:31 18.46705 -68.55532 22166 ft 443 kts 268°
2026-05-04 19:31 18.46630 -68.58733 21746 ft 439 kts 268°
2026-05-04 19:31 18.46555 -68.61915 21320 ft 434 kts 268°
2026-05-04 19:32 18.46479 -68.65092 20897 ft 429 kts 268°
2026-05-04 19:32 18.46404 -68.68207 20466 ft 425 kts 268°
2026-05-04 19:32 18.46329 -68.71325 20028 ft 415 kts 268°
2026-05-04 19:32 18.46258 -68.74244 19544 ft 386 kts 268°
2026-05-04 19:33 18.46192 -68.76918 19198 ft 349 kts 268°
2026-05-04 19:33 18.46149 -68.79373 18942 ft 321 kts 272°
2026-05-04 19:33 18.46226 -68.81709 18604 ft 320 kts 265°
2026-05-04 19:33 18.46039 -68.84017 18222 ft 317 kts 267°
2026-05-04 19:34 18.45917 -68.86350 17838 ft 313 kts 268°
2026-05-04 19:34 18.45821 -68.88641 17429 ft 312 kts 268°
2026-05-04 19:34 18.45735 -68.90907 16995 ft 310 kts 268°
2026-05-04 19:34 18.45653 -68.93167 16562 ft 309 kts 268°
2026-05-04 19:35 18.45571 -68.95452 16123 ft 308 kts 268°
2026-05-04 19:35 18.45491 -68.97724 15686 ft 308 kts 268°
2026-05-04 19:35 18.45412 -68.99958 15254 ft 307 kts 268°
2026-05-04 19:35 18.45331 -69.02219 14824 ft 306 kts 268°
2026-05-04 19:36 18.45251 -69.04458 14416 ft 306 kts 268°
2026-05-04 19:36 18.45172 -69.06692 13985 ft 306 kts 268°
2026-05-04 19:36 18.45091 -69.08948 13553 ft 305 kts 268°
2026-05-04 19:36 18.45011 -69.11169 13124 ft 305 kts 268°
2026-05-04 19:37 18.44930 -69.13400 12708 ft 305 kts 268°
2026-05-04 19:37 18.44848 -69.15668 12293 ft 304 kts 268°
2026-05-04 19:37 18.44769 -69.17858 11814 ft 294 kts 267°
2026-05-04 19:37 18.44694 -69.19941 11369 ft 279 kts 267°
2026-05-04 19:38 18.44620 -69.21952 10930 ft 267 kts 266°
2026-05-04 19:38 18.44549 -69.23882 10559 ft 266 kts 266°
2026-05-04 19:38 18.44477 -69.25829 10135 ft 269 kts 266°
2026-05-04 19:38 18.44437 -69.27802 9703 ft 271 kts 267°
2026-05-04 19:39 18.44403 -69.29796 9266 ft 273 kts 268°
2026-05-04 19:39 18.44370 -69.31795 8888 ft 273 kts 267°
2026-05-04 19:39 18.44337 -69.33781 8594 ft 269 kts 267°
2026-05-04 19:39 18.44303 -69.35731 8296 ft 266 kts 267°
2026-05-04 19:40 18.44270 -69.37697 8021 ft 263 kts 267°
2026-05-04 19:40 18.44237 -69.39592 7938 ft 251 kts 267°
2026-05-04 19:40 18.44205 -69.41413 7942 ft 253 kts 267°
2026-05-04 19:40 18.44305 -69.43301 7882 ft 263 kts 284°
2026-05-04 19:41 18.45209 -69.44988 7660 ft 267 kts 315°
2026-05-04 19:41 18.46683 -69.46137 7428 ft 262 kts 324°
2026-05-04 19:41 18.48143 -69.47321 7158 ft 262 kts 322°
2026-05-04 19:41 18.49572 -69.48513 6869 ft 262 kts 321°
2026-05-04 19:42 18.51017 -69.49729 6567 ft 263 kts 321°
2026-05-04 19:42 18.52453 -69.50938 6272 ft 262 kts 321°
2026-05-04 19:42 18.53895 -69.52155 5977 ft 261 kts 321°
2026-05-04 19:42 18.55317 -69.53355 5684 ft 260 kts 321°
2026-05-04 19:43 18.56737 -69.54552 5390 ft 259 kts 321°
2026-05-04 19:43 18.58139 -69.55737 5095 ft 259 kts 321°
2026-05-04 19:43 18.59561 -69.56937 4806 ft 258 kts 321°
2026-05-04 19:43 18.60972 -69.58128 4509 ft 257 kts 321°
2026-05-04 19:44 18.62373 -69.59312 4217 ft 257 kts 321°
2026-05-04 19:44 18.63770 -69.60491 3918 ft 257 kts 321°
2026-05-04 19:44 18.65089 -69.61783 3601 ft 254 kts 303°
2026-05-04 19:44 18.65638 -69.63487 3298 ft 235 kts 266°
2026-05-04 19:45 18.65261 -69.65080 3113 ft 221 kts 237°
2026-05-04 19:45 18.64482 -69.66459 2950 ft 218 kts 234°
2026-05-04 19:45 18.63652 -69.67798 2921 ft 207 kts 232°
2026-05-04 19:45 18.62872 -69.69019 2969 ft 198 kts 231°
2026-05-04 19:46 18.62078 -69.70244 2946 ft 207 kts 231°
2026-05-04 19:46 18.61240 -69.71537 2941 ft 213 kts 231°
2026-05-04 19:46 18.60189 -69.72606 2842 ft 208 kts 202°
2026-05-04 19:46 18.58834 -69.72791 2632 ft 191 kts 163°
2026-05-04 19:47 18.57608 -69.72340 2440 ft 184 kts 159°
2026-05-04 19:47 18.56398 -69.71891 2225 ft 178 kts 159°
2026-05-04 19:47 18.55284 -69.71477 1989 ft 160 kts 159°
2026-05-04 19:47 18.54246 -69.71089 1945 ft 158 kts 159°
2026-05-04 19:48 18.53172 -69.70676 1741 ft 171 kts 158°
2026-05-04 19:48 18.52021 -69.70262 1566 ft 179 kts 159°
2026-05-04 19:48 18.50851 -69.69812 1301 ft 172 kts 159°
2026-05-04 19:48 18.49765 -69.69376 976 ft 160 kts 159°
2026-05-04 19:49 18.48770 -69.69022 821 ft 141 kts 161°
2026-05-04 19:49 18.47839 -69.68692 709 ft 142 kts 160°
2026-05-04 19:49 18.46885 -69.68342 562 ft 144 kts 161°
2026-05-04 19:49 18.45939 -69.67998 391 ft 143 kts 161°
2026-05-04 19:50 18.45003 -69.67645 209 ft 142 kts 162°
2026-05-04 19:50 18.44081 -69.67304 65 ft 132 kts 162°
2026-05-04 19:50 18.43308 -69.67020 62 ft 86 kts 160°
2026-05-04 19:50 18.43018 -69.66917 64 ft 18 kts 167°
2026-05-04 19:51 18.42939 -69.66962 64 ft 10 kts 253°
2026-05-04 19:51 18.42941 -69.67052 62 ft 14 kts 275°
2026-05-04 19:51 18.42953 -69.67162 61 ft 15 kts 276°
2026-05-04 19:51 18.42963 -69.67271 59 ft 13 kts 275°
2026-05-04 19:52 18.42971 -69.67345 58 ft 10 kts 282°
2026-05-04 19:52 18.43007 -69.67412 57 ft 9 kts 324°
2026-05-04 19:52 18.43053 -69.67442 57 ft 4 kts 323°
2026-05-04 19:52 18.43076 -69.67481 57 ft 7 kts 294°
2026-05-04 19:53 18.43094 -69.67528 56 ft 3 kts 291°
2026-05-04 19:53 18.43104 -69.67554 56 ft 0 kts 291°
2026-05-04 19:53 18.43106 -69.67558 56 ft 0 kts 292°